This demonstration page uses our WeatherBlox Daily Observations layout. Learn more.

40.92501, -98.34201

Hourly Observations for August 20, 2019

Temp ( °F °C ) Dew Point ( °F °C ) Humidity (%) Winds ( mph kmh ) Pressure ( in mb ) Visibility ( mi km ) Precip ( " mm )
12:53 am 00:53 Clear 79 26.1 75 23.9 88 88 SSE 7 11 29.88 1012 10 16.0934 0 0
1:53 am 01:53 Clear 78 25.6 75 23.9 90 90 S 9 15 29.86 1011 10 16.0934 0 0
2:53 am 02:53 Clear 77 25 74 23.3 90 90 S 9 15 29.85 1011 8 12.87472 0 0
3:53 am 03:53 Clear 76 24.4 73 22.8 91 91 VRB 3 6 29.85 1011 7 11.26538 0 0
4:53 am 04:53 Clear 76 24.4 73 22.8 91 91 SW 8 13 29.85 1011 9 14.48406 0 0
5:53 am 05:53 Clear 74 23.3 71 21.7 91 91 W 3 6 29.85 1011 7 11.26538 0 0
6:53 am 06:53 Sunny 72 22.2 69 20.6 91 91 W 3 6 29.88 1012 8 12.87472 0 0
7:53 am 07:53 Sunny 76 24.4 70 21.1 82 82 Calm 29.91 1013 9 14.48406 0 0
8:53 am 08:53 Sunny 81 27.2 71 21.7 72 72 SW 6 9 29.91 1013 10 16.0934 0 0
9:53 am 09:53 Sunny 84 28.9 70 21.1 63 63 SW 5 7 29.92 1013 10 16.0934 0 0
10:53 am 10:53 Sunny 83 28.3 73 22.8 72 72 NNE 3 6 29.94 1014 10 16.0934 0 0
11:53 am 11:53 Sunny 86 30 77 25 75 75 NE 7 11 29.95 1014 10 16.0934 0 0
12:53 pm 12:53 Sunny 88 31.1 75 23.9 66 66 ENE 10 17 29.95 1014 10 16.0934 0 0
1:53 pm 13:53 Sunny 89 31.7 73 22.8 59 59 NE 13 20 29.96 1014 10 16.0934 0 0
2:53 pm 14:53 Sunny 89 31.7 74 23.3 61 61 ENE 15 24 29.94 1014 10 16.0934 0 0
3:53 pm 15:53 Sunny 89 31.7 74 23.3 61 61 ENE 12 19 29.95 1014 10 16.0934 0 0
4:53 pm 16:53 Sunny 89 31.7 73 22.8 59 59 E 12 19 29.94 1014 10 16.0934 0 0
5:53 pm 17:53 Sunny 88 31.1 74 23.3 63 63 E 7 11 29.95 1014 10 16.0934 0 0
6:53 pm 18:53 Sunny 86 30 75 23.9 70 70 NE 8 13 29.94 1014 10 16.0934 0 0
7:53 pm 19:53 Mostly Sunny 83 28.3 75 23.9 77 77 NE 9 15 29.95 1014 10 16.0934 0 0
8:53 pm 20:53 Clear 80 26.7 74 23.3 82 82 ENE 8 13 29.96 1015 10 16.0934 0 0
9:53 pm 21:53 Clear 79 26.1 74 23.3 85 85 E 5 7 29.98 1015 10 16.0934 0 0
10:53 pm 22:53 Clear 78 25.6 75 23.9 90 90 E 7 11 29.98 1015 8 12.87472 0 0
11:53 pm 23:53 Mostly Cloudy with Light Thunderstorms 79 26.1 76 24.4 90 90 E 7 11 29.98 1015 8 12.87472 0.001 0.001

Powered by AerisWeather